GW7395 Weather Reports


time (UTC)temp
F
wind
direction
speed
knots
gust
knots
rain 1hr
in
rain 24hr
in
rain mn
in
humidity
%
barometer
mb
20260507194529 60 272 1.7 6.1 0.00 0.00 0.00 22 1009.5
20260507193020 60 329 4.3 7.8 0.00 0.00 0.00 22 1009.6
20260507191522 60 262 0.9 6.1 0.00 0.00 0.00 23 1009.7
20260507190012 61 327 4.3 9.6 0.00 0.00 0.00 20 1009.7
20260507184511 61 8 2.6 5.2 0.00 0.00 0.00 20 1009.9
20260507183020 61 139 1.7 5.2 0.00 0.00 0.00 22 1010.1
20260507181520 59 283 1.7 6.1 0.00 0.00 0.00 21 1010.3
20260507180026 60 215 1.7 6.1 0.00 0.00 0.00 21 1010.3
20260507174512 58 287 0.9 7.0 0.00 0.00 0.00 23 1010.5
20260507173034 59 302 2.6 5.2 0.00 0.00 0.00 22 1010.4
20260507171521 58 41 1.7 6.1 0.00 0.00 0.00 23 1010.4
20260507170024 57 231 1.7 4.3 0.00 0.00 0.00 24 1010.7
20260507164533 57 271 1.7 4.3 0.00 0.00 0.00 25 1010.6
20260507163028 55 189 0.9 3.5 0.00 0.00 0.00 26 1010.8
20260507161518 55 297 0.9 1.7 0.00 0.00 0.00 25 1010.9
20260507160025 53 250 0.0 2.6 0.00 0.00 0.00 31 1011.0
20260507154523 53 209 0.9 3.5 0.00 0.00 0.00 32 1011.2
20260507153034 51 176 0.9 3.5 0.00 0.00 0.00 38 1011.4
20260507151531 50 176 0.0 2.6 0.00 0.00 0.00 38 1011.4
20260507150018 49 153 0.0 1.7 0.00 0.00 0.00 41 1011.5
20260507144530 47 197 0.9 1.7 0.00 0.00 0.00 44 1011.3
20260507143027 45 142 0.0 4.3 0.00 0.00 0.00 45 1011.3
20260507141529 44 117 0.0 0.0 0.00 0.00 0.00 49 1011.6
20260507140018 42 178 0.0 0.9 0.00 0.00 0.00 56 1011.4
20260507134518 39 106 0.0 0.0 0.00 0.00 0.00 54 1011.4
20260507133026 37 169 0.0 0.0 0.00 0.00 0.00 62 1011.4
20260507131516 34 230 0.0 0.0 0.00 0.00 0.00 70 1011.5
20260507130013 31 280 0.0 0.0 0.00 0.00 0.00 74 1011.5
20260507124519 29 250 0.0 0.0 0.00 0.00 0.00 77 1011.6
20260507123021 28 223 0.0 0.0 0.00 0.00 0.00 80 1011.5
20260507121524 26 280 0.0 0.0 0.00 0.00 0.00 81 1011.3
20260507120008 24 280 0.0 0.0 0.00 0.00 0.00 82 1011.2
20260507114512 24 274 0.0 0.0 0.00 0.00 0.00 86 1011.2
20260507113036 24 296 0.0 0.0 0.00 0.00 0.00 86 1011.1
20260507111520 24 296 0.0 0.0 0.00 0.00 0.00 86 1011.0
20260507110025 24 51 0.0 0.0 0.00 0.00 0.00 83 1010.9
20260507104537 24 51 0.0 0.0 0.00 0.00 0.00 82 1010.9
20260507103017 25 51 0.0 0.0 0.00 0.00 0.00 79 1010.8
20260507101518 25 51 0.0 0.0 0.00 0.00 0.00 79 1010.9
20260507100018 26 51 0.0 0.0 0.00 0.00 0.00 79 1011.0
20260507094526 26 51 0.0 0.0 0.00 0.00 0.00 78 1010.9
20260507093030 27 51 0.0 0.0 0.00 0.00 0.00 79 1010.9
20260507091510 27 51 0.0 0.0 0.00 0.00 0.00 69 1010.9
20260507090015 28 51 0.0 0.0 0.00 0.00 0.00 73 1010.8
20260507084525 28 51 0.0 0.0 0.00 0.00 0.00 78 1011.1
20260507083024 28 51 0.0 0.0 0.00 0.00 0.00 71 1010.9
20260507081534 28 9 0.0 0.0 0.00 0.00 0.00 68 1010.8
20260507080030 28 9 0.0 0.0 0.00 0.00 0.00 71 1010.9
20260507074518 27 4 0.0 0.0 0.00 0.00 0.00 70 1010.9
20260507073020 28 1 0.0 0.0 0.00 0.00 0.00 71 1010.8
20260507071525 28 70 0.0 0.0 0.00 0.00 0.00 72 1010.7
20260507070028 29 32 0.0 0.0 0.00 0.00 0.00 68 1010.6
20260507064527 29 34 0.0 0.0 0.00 0.00 0.00 67 1010.6
20260507063003 29 24 0.0 0.0 0.00 0.00 0.00 69 1010.6
20260507061503 30 24 0.0 0.0 0.00 0.00 0.00 63 1010.7
20260507060004 31 24 0.0 0.0 0.00 0.00 0.00 61 1010.5
20260507054505 32 24 0.0 0.0 0.00 0.00 0.00 57 1010.5
20260507053008 33 23 0.0 0.0 0.00 0.00 0.00 58 1010.7
20260507051503 34 23 0.0 0.0 0.00 0.00 0.00 54 1010.8
20260507050003 34 24 0.0 0.0 0.00 0.00 0.00 51 1010.6
20260507044504 35 68 0.0 0.0 0.00 0.00 0.00 46 1010.7
20260507043019 36 68 0.0 0.0 0.00 0.00 0.00 44 1010.8
20260507041512 37 68 0.0 0.0 0.00 0.00 0.00 44 1010.8
20260507040012 39 68 0.0 0.0 0.00 0.00 0.00 41 1010.8
20260507034503 40 68 0.0 0.0 0.00 0.00 0.00 45 1010.9
20260507033006 39 91 0.0 0.0 0.00 0.00 0.00 38 1010.9
20260507031508 40 86 0.0 0.9 0.00 0.00 0.00 34 1010.9
20260507030015 42 11 0.9 2.6 0.00 0.00 0.00 32 1010.8
20260507024519 43 17 1.7 2.6 0.00 0.00 0.00 31 1010.6
20260507023007 44 15 1.7 2.6 0.00 0.00 0.00 30 1010.6
20260507021509 45 356 0.9 1.7 0.00 0.00 0.00 29 1010.7
20260507020013 48 356 1.7 2.6 0.00 0.00 0.00 26 1010.8
20260507014518 51 352 0.0 1.7 0.00 0.00 0.00 23 1010.7
20260507013021 54 344 0.9 4.3 0.00 0.00 0.00 21 1010.8
20260507011534 55 336 0.9 5.2 0.00 0.00 0.00 20 1010.7
20260507010008 55 299 3.5 7.8 0.00 0.00 0.00 20 1010.8
20260507004515 56 288 2.6 6.1 0.00 0.00 0.00 19 1010.9
20260507003016 56 287 5.2 9.6 0.00 0.00 0.00 19 1011.0
20260507001545 56 290 5.2 11.3 0.00 0.00 0.00 20 1011.0
20260507000024 57 280 3.5 7.0 0.00 0.00 0.00 20 1011.1
20260506234510 56 294 1.7 10.4 0.00 0.00 0.00 23 1011.2
20260506233018 57 254 1.7 6.1 0.00 0.00 0.00 20 1011.3
20260506231518 56 284 3.5 8.7 0.00 0.00 0.00 21 1011.5
20260506230026 56 296 5.2 8.7 0.00 0.00 0.00 19 1011.6
20260506224524 56 316 4.3 7.8 0.00 0.00 0.00 19 1011.6
20260506223013 56 283 3.5 9.6 0.00 0.00 0.00 21 1011.6
20260506221515 57 263 1.7 10.4 0.00 0.00 0.00 19 1011.9
20260506220004 56 299 5.2 9.6 0.00 0.00 0.00 22 1012.2
20260506214505 54 248 1.7 7.8 0.00 0.00 0.00 24 1012.4
20260506213006 55 240 1.7 10.4 0.00 0.00 0.00 24 1012.8
20260506211515 55 295 1.7 7.8 0.00 0.00 0.00 23 1013.0
20260506210043 54 319 5.2 9.6 0.00 0.00 0.00 25 1013.2
20260506204504 54 295 3.5 12.2 0.00 0.00 0.00 24 1013.5
20260506203010 53 286 4.3 8.7 0.00 0.00 0.00 27 1013.7
20260506201516 54 328 3.5 8.7 0.00 0.00 0.00 26 1013.6
20260506200017 54 275 4.3 8.7 0.00 0.00 0.00 24 1014.1